Regional Weather Roundup
Issued by NWS

Home | Current Version | Previous Version | Graphics & Text | Print | Product List | Glossary On
Versions: 1 2 3 4 5 6 7 8 9 10 11 12 13 14 15 16 17 18 19 20 21 22 23 24 25 26 27 28 29 30 31 32 33 34 35 36 37 38 39 40 41 42 43 44 45 46 47 48 49 50
000
ASUS43 KLMK 030110
RWRKY
KENTUCKY REGIONAL WEATHER ROUNDUP
NATIONAL WEATHER SERVICE LOUISVILLE KY
900 PM EDT THU JUL 02 2015

NOTE "FAIR" INDICATES FEW OR NO CLOUDS BELOW 12,000 FEET
WITH NO SIGNIFICANT WEATHER AND/OR OBSTRUCTIONS TO VISIBILITY.

KYZ001>023-026-027-061>063-070>075-030200-
WESTERN AND SOUTH CENTRAL KENTUCKY

CITY           SKY/WX    TMP DP  RH WIND       PRES   REMARKS
PADUCAH        CLOUDY    80  71  74 NW5       29.84R
HENDERSON      CLOUDY    75  70  83 N5        29.84R
OWENSBORO      CLOUDY    78  70  76 NE6       29.85R
HOPKINSVILLE   MOCLDY    75  72  91 SW13      29.85R
BOWLING GREEN  CLOUDY    73  69  87 SE3       29.86R
GLASGOW        CLOUDY    71  69  95 SE3       29.87R
$$

KYZ024-025-028>034-038-045-046-053-030200-
NORTH CENTRAL KENTUCKY

CITY           SKY/WX    TMP DP  RH WIND       PRES   REMARKS
LOUISVILLE/SDF CLOUDY    73  69  87 N6        29.84S
LOUISVILLE/LOU LGT RAIN  72  69  90 NE6       29.85S
FORT KNOX      CLOUDY    75  71  86 N5        29.83F
$$

KYZ035>037-039>044-047>052-055>060-089>105-030200-
NORTHEAST KENTUCKY

CITY           SKY/WX    TMP DP  RH WIND       PRES   REMARKS
LEXINGTON      PTCLDY    73  68  84 E3        29.88S
COVINGTON      HVY RAIN  69  68  96 E7        29.89R FOG
FRANKFORT      PTCLDY    73  69  87 E6        29.86S
$$

KYZ054-064>069-076>088-106>120-030200-
SOUTHEAST KENTUCKY

CITY           SKY/WX    TMP DP  RH WIND       PRES   REMARKS
JACKSON        CLOUDY    70  66  87 CALM      29.92R
LONDON         CLOUDY    76  66  71 S6        29.91R
SOMERSET       CLOUDY    72  66  83 CALM      29.90R
MIDDLESBORO    LGT RAIN  73  68  87 CALM      29.93R
MONTICELLO     CLOUDY    71  71 100 CALM      29.91R
$$



USA.gov is the U.S. government's official web portal to all federal, state and local government web resources and services.